This is the latest recevied weather packets stored in our database for station/object DL6MAA-11. If no packets are shown the sender has not sent any weather packets the latest 10 day(s).
| Time | Temp. | Humidity | Pressure | Rain* | Wind** | Luminosity | Snow |
|---|---|---|---|---|---|---|---|
| 1777870025 | 9.44° C | 74% | 1012.4 hPa | 0 mm | - | 39 W/m² | - |
| 1777869716 | 9.44° C | 73% | 1012.3 hPa | 0 mm | - | 30 W/m² | - |
| 1777869424 | 9.44° C | 70% | 1012.3 hPa | 0 mm | - | 28 W/m² | - |
| 1777869131 | 9.44° C | 69% | 1012.3 hPa | 0 mm | - | 23 W/m² | - |
| 1777868820 | 10° C | 68% | 1012.3 hPa | 0 mm | - | 19 W/m² | - |
| 1777868530 | 10° C | 68% | 1012.3 hPa | 0 mm | - | 12 W/m² | - |
| 1777868216 | 10° C | 68% | 1012.3 hPa | 0 mm | - | 14 W/m² | - |
| 1777867921 | 10° C | 68% | 1012.9 hPa | 0 mm | - | 9 W/m² | - |
| 1777867614 | 10.56° C | 68% | 1012.9 hPa | 0 mm | - | 5 W/m² | - |
| 1777867318 | 10.56° C | 68% | 1012.9 hPa | 0 mm | - | 0 W/m² | - |
| 1777867024 | 10.56° C | 68% | 1013 hPa | 0 mm | - | 0 W/m² | - |
| 1777866730 | 10.56° C | 67% | 1013 hPa | 0 mm | - | 0 W/m² | - |
| 1777866421 | 10.56° C | 67% | 1013 hPa | 0 mm | - | 0 W/m² | - |
| 1777866127 | 10.56° C | 67% | 1013 hPa | 0 mm | - | 0 W/m² | - |
| 1777865830 | 11.11° C | 67% | 1013 hPa | 0 mm | - | 0 W/m² | - |
| 1777865523 | 11.11° C | 67% | 1013 hPa | 0 mm | - | 0 W/m² | - |
| 1777865225 | 11.11° C | 67% | 1013.2 hPa | 0 mm | - | 0 W/m² | - |
| 1777864928 | 11.11° C | 68% | 1013.2 hPa | 0 mm | - | 0 W/m² | - |
| 1777864622 | 11.11° C | 67% | 1013.2 hPa | 0 mm | - | 0 W/m² | - |
| 1777864324 | 11.11° C | 68% | 1012.3 hPa | 0 mm | - | 0 W/m² | - |
| 1777864026 | 11.11° C | 68% | 1012.3 hPa | 0 mm | - | 0 W/m² | - |
| 1777863729 | 11.11° C | 67% | 1012.3 hPa | 0 mm | - | 0 W/m² | - |
| 1777863424 | 11.11° C | 68% | 1012.6 hPa | 0 mm | - | 0 W/m² | - |
| 1777863121 | 11.11° C | 68% | 1012.6 hPa | 0 mm | - | 0 W/m² | - |
| 1777862818 | 11.11° C | 67% | 1012.6 hPa | 0 mm | - | 0 W/m² | - |
* Rain since midnight (hover to see other rain measurements)
** Current wind speed in m/s (hover to see current wind gust speed)